Regional Weather Roundup
Issued by NWS Midland/Odessa, TX

Skip options and go directly to product.
Home | Oldest Version | Previous Version | Current Version | All | Text Only | Save Text | Print | Product List | Glossary On

Skip product version selection by date and time.   
479
ASUS44 KMAF 180510
RWRMAF
MIDLAND AREA WEATHER ROUNDUP
NATIONAL WEATHER SERVICE MIDLAND TX
1100 PM CST TUE JAN 17 2017

...IN SOUTHWEST TEXAS AND SOUTHEAST NEW MEXICO...

CITY           SKY/WX    TMP DP  RH WIND       PRES   REMARKS
ALPINE         CLOUDY    37  37  98 CALM      30.23R
ANDREWS        DRIZZLE   41  41 100 CALM      30.20S
ARTESIA        CLOUDY    43  43 100 CALM      30.18S
BIG SPRING     CLOUDY    41  41  99 W3        30.22R
CARLSBAD       CLOUDY    44  43  96 CALM      30.17S
DRYDEN           N/A     47  41  80 N8        30.15S
FORT STOCKTON  CLOUDY    41  40  96 NW5       30.19S WCI  38
GUAD PASS      FOG       36  36 100 NE14      30.17R VSB 1/4 WCI  27
HOBBS          NOT AVBL
MARFA          CLOUDY    36  35  96 E7        30.17S WCI  30
MIDLAND AIRPK  CLOUDY    44  43  98 NW6       30.21R
MIDLAND INTL   CLOUDY    44  41  89 CALM      30.19R
ODESSA         CLOUDY    43  40  89 NW6       30.20R FOG     WCI  39
PECOS          CLOUDY    43  40  89 W3        30.20S
PRESIDIO       FAIR      47  39  73 N10       30.12R
SEMINOLE       CLOUDY    42  41  97 CALM      30.20R FOG
SNYDER         CLOUDY    41  41  99 CALM      30.19R
WINK           CLOUDY    44  41  89 SW5       30.18S
$$
...OTHER STATIONS IN TEXAS...

CITY           SKY/WX    TMP DP  RH WIND       PRES   REMARKS
ABILENE        CLOUDY    42  42 100 N6        30.18F WCI  38
AMARILLO       LGT RAIN  41  38  89 S13       30.16S WCI  34
AUSTIN         LGT RAIN  50  48  93 N10       30.11R FOG
BROWNSVILLE    CLOUDY    73  70  90 SE9       29.99S
CORPUS CHRISTI LGT RAIN  73  72  96 S15       29.99R FOG
DALLAS FTW     LGT RAIN  48  46  93 NE10      30.13F
DEL RIO        CLOUDY    49  46  90 NW12      30.11F
EL PASO        PTCLDY    43  37  79 N5        30.15R
HOUSTON INT    HVY RAIN  60  59  96 NE6       30.06S VSB 1/4
LUBBOCK        LGT RAIN  42  41  96 W5        30.18R FOG     WCI  39
SAN ANGELO     CLOUDY    44  43  96 MISG      30.16S
SAN ANTONIO    LGT RAIN  50  48  93 N9        30.08R
WACO           LGT RAIN  46  45  96 N14       30.13F WCI  40
WICHITA FALLS  NOT AVBL
$$
...OTHER LOCATIONS IN NEW MEXICO...

CITY           SKY/WX    TMP DP  RH WIND       PRES   REMARKS
ALAMAGORDO     CLOUDY    41  41 100 SE3       30.17R
ALBUQUERQUE    PTCLDY    40  34  79 SE6       30.13R WCI  36
CANNON AFB     RAIN      42  42 100 SW6       30.17R WCI  38
CLOVIS         CLOUDY    43  39  87 S7        30.17R WCI  39
HOLLOMAN AFB   CLOUDY    42  42 100 S6        30.19R WCI  39
ROSWELL        CLOUDY    42  39  89 SW6       30.17R WCI  38
RUIDOSO        CLOUDY    32  32 100 CALM      30.17S
SANTA FE       CLEAR     30  27  88 CALM      30.11R
TRUTH OR CONSE PTCLDY    41  37  86 SW3       30.14R
TUCUMCARI      CLOUDY    45  40  82 S14       30.12R WCI  38
$$

  • National Weather Service
  • Southern Region Headquarters
  • 819 Taylor Street, Room 10A06
  • Fort Worth, TX 76102
  • Page Author: NWS Fort Worth
  • Web Master: SR-SRH.Webmaster@noaa.gov
  •  
  • Page last modified: 30-Sep-2016 6:36 PM UTC
USA.gov is the U.S. government's official web portal to all federal, state and local government web resources and services.